This demonstration page uses our WeatherBlox Daily Observations layout. Learn more.

38.88101, -77.10428

Hourly Observations for June 19, 2017

Temp ( °F °C ) Dew Point ( °F °C ) Humidity (%) Winds ( mph kmh ) Pressure ( in mb ) Visibility ( mi km ) Precip ( " mm )
1:52 am 01:52 Mostly Cloudy 83 28.3 71 21.7 67 67 SSW 16 26 29.83 1010 10 16.0934 0 0
2:52 am 02:52 Mostly Cloudy 82 27.8 72 22.2 72 72 SSW 17 28 29.83 1010 10 16.0934 0 0
3:52 am 03:52 Mostly Cloudy 81 27.2 72 22.2 74 74 SSW 17 28 29.83 1010 10 16.0934 0 0
4:52 am 04:52 Partly Cloudy 80 26.7 73 22.8 79 79 SSW 14 22 29.83 1010 10 16.0934 0 0
5:52 am 05:52 Partly Cloudy 80 26.7 73 22.8 79 79 SSW 15 24 29.85 1011 10 16.0934 0 0
6:52 am 06:52 Partly Cloudy 80 26.7 71 21.7 74 74 SSW 17 28 29.85 1011 10 16.0934 0 0
7:52 am 07:52 Mostly Cloudy 81 27.2 71 21.7 72 72 SSW 16 26 29.87 1011 10 16.0934 0 0
8:52 am 08:52 Mostly Cloudy 81 27.2 70 21.1 69 69 SSW 17 28 29.86 1011 10 16.0934 0 0
9:52 am 09:52 Partly Cloudy 83 28.3 71 21.7 67 67 SSW 18 30 29.86 1011 10 16.0934 0 0
10:52 am 10:52 Mostly Cloudy 83 28.3 72 22.2 70 70 SSW 24 39 29.86 1011 10 16.0934 0 0
11:52 am 11:52 Mostly Cloudy 86 30 72 22.2 63 63 SSW 23 37 29.86 1011 10 16.0934 0 0
12:52 pm 12:52 Mostly Cloudy 88 31.1 72 22.2 59 59 SSW 21 33 29.84 1011 10 16.0934 0 0
1:52 pm 13:52 Mostly Cloudy 88 31.1 71 21.7 57 57 SSW 24 39 29.81 1010 10 16.0934 0 0
2:52 pm 14:52 Mostly Cloudy 88 31.1 72 22.2 59 59 SSW 18 30 29.8 1009 10 16.0934 0 0
3:42 pm 15:42 Cloudy with Nearby Thunderstorms 84 28.9 74 23.3 72 72 WSW 24 39 29.83 1010 2 3.21868 0 0.0254
3:46 pm 15:46 Cloudy with Heavy Thunderstorms 79 26 72 22 79 79 W 32 52 29.85 1011 0.5 0.80467 0.02 0.508
3:52 pm 15:52 Cloudy with Heavy Thunderstorms 72 22.2 69 20.6 91 91 WNW 14 22 29.84 1011 0.75 1.207005 0.23 5.842
3:55 pm 15:55 Cloudy with Light Thunderstorms 72 22.2 69 20.6 91 91 WNW 13 20 29.83 1010 3 4.82802 0.17 4.318
4:04 pm 16:04 Cloudy with Light Thunderstorms 74 23.3 69 20.6 85 85 WNW 14 22 29.83 1010 6 9.65604 0.2 5.08
4:34 pm 16:34 Cloudy with Light Rain 75 23.9 71 21.7 88 88 WNW 12 19 29.83 1010 10 16.0934 0.23 5.842
4:52 pm 16:52 Cloudy with Light Rain 74 23.3 71 21.7 91 91 W 17 28 29.83 1010 5 8.0467 0.25 6.35
5:28 pm 17:28 Cloudy with Nearby Thunderstorms 76 24.4 73 22.8 91 91 W 8 13 29.83 1010 10 16.0934 0.03 0.762
5:52 pm 17:52 Cloudy 76 24.4 73 22.8 91 91 WSW 8 13 29.84 1010 7 11.26538 0.03 0.762
6:11 pm 18:11 Cloudy with Nearby Thunderstorms 76 24.4 73 22.8 91 91 SW 10 17 29.85 1011 8 12.87472 0.02 0.508
6:41 pm 18:41 Cloudy with Thunderstorms 76 24.4 73 22.8 91 91 WSW 7 11 29.83 1010 10 16.0934 0.02 0.508
6:52 pm 18:52 Cloudy with Thunderstorms 76 24.4 73 22.8 91 91 WSW 6 9 29.83 1010 10 16.0934 0.02 0.508
7:52 pm 19:52 Partly Cloudy with Nearby Thunderstorms 77 25 73 22.8 88 88 SSW 8 13 29.86 1011 10 16.0934 0 0.0254
8:02 pm 20:02 Cloudy 77 25 74 23.3 90 90 SW 6 9 29.85 1011 10 16.0934 0 0
8:22 pm 20:22 Mostly Cloudy with Nearby Thunderstorms 77 25 73 22.8 88 88 SW 5 7 29.85 1011 10 16.0934 0 0
8:37 pm 20:37 Cloudy 76 24.4 73 22.8 91 91 SSW 5 7 29.85 1011 10 16.0934 0 0
8:52 pm 20:52 Cloudy 76 24.4 73 22.8 91 91 S 9 15 29.88 1012 10 16.0934 0 0
9:52 pm 21:52 Cloudy 75 23.9 72 22.2 90 90 SSW 10 17 29.89 1012 10 16.0934 0 0
10:52 pm 22:52 Mostly Cloudy 74 23.3 72 22.2 94 94 SW 7 11 29.9 1013 10 16.0934 0 0
11:52 pm 23:52 Cloudy 74 23.3 71 21.7 91 91 SSW 8 13 29.91 1013 10 16.0934 0 0

Powered by AerisWeather